This demonstration page uses our WeatherBlox Daily Observations layout. Learn more.

Left ArrowRight Arrow

44.8408, -93.29828

Hourly Observations for September 5, 2016

Temp ( °F °C ) Dew Point ( °F °C ) Humidity (%) Winds ( mph kmh ) Pressure ( in mb ) Visibility ( mi km ) Precip ( " mm )
12:16 am 00:16 Cloudy with Nearby Thunderstorms 70 21 61 16 73 73 SSE 13 20 29.91 1013 10 16 0.00 0.00
12:53 am 00:53 Cloudy with Nearby Thunderstorms 70 21.1 60 15.6 71 71 S 12 19 29.87 1012 10 16 0.00 0.00
1:17 am 01:17 Cloudy with Light Rain 70 21.1 61 16.1 73 73 S 16 26 29.88 1012 9 14 0.01 0.25
1:53 am 01:53 Cloudy 68 20 61 16.1 78 78 SSE 14 22 29.83 1010 10 16 0.01 0.25
2:53 am 02:53 Cloudy 69 20.6 61 16.1 76 76 SSE 16 26 29.79 1009 10 16 0.00 0.00
3:36 am 03:36 Cloudy with Nearby Thunderstorms 70 21 61 16 73 73 S 18 30 29.77 1008 10 16 0.00 0.00
3:53 am 03:53 Cloudy with Thunderstorms 71 21.7 60 15.6 68 68 WSW 15 24 29.85 1011 10 16 0.00 0.03
4:00 am 04:00 Cloudy with Strong Thunderstorms 70 21 63 17 78 78 SW 22 35 29.85 1011 4 6 0.00 0.00
4:05 am 04:05 Cloudy with Strong Thunderstorms 68 20 62 16.7 81 81 SSW 18 30 29.85 1011 2 3 0.15 3.81
4:20 am 04:20 Cloudy with Thunderstorms 66 19 63 17 88 88 SSW 16 26 29.85 1011 3 5 0.00 0.00
4:53 am 04:53 Mostly Cloudy with Rain 67 19.4 63 17.2 87 87 SSW 13 20 29.83 1010 4 6 0.38 9.65
5:53 am 05:53 Cloudy with Light Rain 67 19.4 64 17.8 91 91 S 21 33 29.75 1008 6 10 0.11 2.79
6:26 am 06:26 Cloudy 68 20 63 17 83 83 SW 12 19 29.77 1008 10 16 0.00 0.00
6:53 am 06:53 Cloudy 68 20 63 17.2 84 84 WSW 9 15 29.78 1009 10 16 0.01 0.25
7:53 am 07:53 Mostly Cloudy 68 20 63 17.2 84 84 SW 6 9 29.81 1009 10 16 0.00 0.00
8:53 am 08:53 Mostly Cloudy 69 20.6 64 17.8 84 84 SSW 5 7 29.83 1010 10 16 0.00 0.00
9:53 am 09:53 Mostly Cloudy 72 22.2 65 18.3 79 79 SSW 10 17 29.86 1011 10 16 0.00 0.00
10:00 am 10:00 Mostly Cloudy 73 22.8 65 18.3 76 76 SW 8 13 29.85 1011 10 16 0.00 0.00
10:53 am 10:53 Mostly Cloudy 75 23.9 65 18.3 71 71 SW 9 15 29.85 1011 10 16 0.00 0.00
11:43 am 11:43 Mostly Cloudy 77 25 66 18.9 69 69 SW 9 15 29.85 1011 10 16 0.00 0.00
11:53 am 11:53 Mostly Cloudy 77 25 66 18.9 69 69 SW 12 19 29.85 1011 10 16 0.00 0.00
12:53 pm 12:53 Cloudy 76 24.4 66 18.9 72 72 SSW 9 15 29.86 1011 10 16 0.00 0.00
1:53 pm 13:53 Cloudy 76 24.4 66 18.9 72 72 SSW 10 17 29.86 1011 10 16 0.00 0.00
2:53 pm 14:53 Mostly Cloudy 78 25.6 67 19.4 69 69 SSW 12 19 29.83 1010 10 16 0.00 0.00
3:53 pm 15:53 Cloudy 77 25 67 19.4 71 71 S 8 13 29.83 1010 10 16 0.00 0.00
4:53 pm 16:53 Cloudy 78 25.6 68 20 71 71 S 6 9 29.84 1011 10 16 0.00 0.00
5:24 pm 17:24 Cloudy 78 25.6 68 20 71 71 S 8 13 29.83 1010 10 16 0.00 0.00
5:53 pm 17:53 Cloudy 78 25.6 69 20.6 74 74 SSE 3 6 29.84 1011 10 16 0.00 0.00
6:53 pm 18:53 Cloudy with Light Rain 76 24.4 70 21.1 82 82 ESE 6 9 29.83 1010 9 14 0.00 0.03
7:53 pm 19:53 Cloudy 76 24.4 70 21.1 82 82 ESE 7 11 29.82 1010 10 16 0.00 0.03
8:53 pm 20:53 Cloudy 76 24.4 70 21.1 82 82 SE 7 11 29.82 1010 10 16 0.00 0.00
9:53 pm 21:53 Cloudy 77 25 71 21.7 82 82 SSE 7 11 29.83 1010 10 16 0.00 0.00
10:53 pm 22:53 Cloudy 78 25.6 72 22.2 82 82 S 9 15 29.82 1010 10 16 0.00 0.00
11:53 pm 23:53 Partly Cloudy 80 26.7 72 22.2 76 76 S 9 15 29.82 1010 10 16 0.00 0.00

Powered by AerisWeather